Torna al catalogo

FENGYUN 1C DEB

AttivoSSO
NORAD 43359·DEBRIS·🇨🇳 China

Lanciato May 10, 1999 da Taiyuan Satellite Launch Center

Loading…

Prossimi Passaggi (prossime 24 ore)

TLE

AggiornatoSource: Space-Track

Epoca: Sep 14, 2026, 05:00 UTC

1 43359U 99025EYQ 26257.20894724  .00002615  00000-0  10961-2 0  9990
2 43359  99.0472 350.4408 0071154 302.3153  57.1148 14.25540169516719

Traccia FENGYUN 1C DEB in tempo reale con AllMySat

Download on the App Store